User: anonymous   Login
Location: Unspecified
(0.0000°N, 0.0000°E)
Time: 15:33:46
(UTC+00:00)
Language:

Nadezhda 4 - Orbit

View from above orbital plane
View from above orbital plane
View from above satellite
View from above satellite

Ground track
Ground track

The orbit data is extracted from the following two-line orbital elements,

1 23179U 94041A   18116.33849306  .00000024  00000-0  89012-5 0  9994
2 23179  82.9464  74.8837 0036301 127.7472 340.3531 13.76544048194776
Epoch (UTC): 26 April 2018 08:07:25
Eccentricity: 0.0036301
inclination: 82.9464°
perigee height: 949 km
apogee height: 1003 km
right ascension of ascending node: 74.8837°
argument of perigee: 127.7472°
revolutions per day: 13.76544048
mean anomaly at epoch: 340.3531°
orbit number at epoch: 19477

The dashed part of the orbit path shows where the satellite is in the earth's shadow,  

DLR